Location: Newark
(41.6500°N, 71.4833°W)
Time: 22:24:05
(UTC+00:00)

Transit 2A Rocket - Pass Details

Date: 02 February 2020
Orbit: 592 x 911 km, 66.7° (Epoch: 19 February)

Event Time Altitude Azimuth Distance (km) Brightness Sun altitude
Rises 15:32:05 0° 340° (NNW) 3,021 7.5 28.1°
Reaches altitude 10° 15:34:48 10° 356° (N) 2,158 6.9 28.3°
Maximum altitude 15:38:38 22° 48° (NE) 1,564 6.6 28.6°
Drops below altitude 10° 15:42:42 10° 98° (E) 2,315 8.0 28.9°
Sets 15:45:43 0° 113° (ESE) 3,303 8.9 29.1°
